Stündliche Wetter Bern

Heute, 1 März, Montag

Zeit Temperatur Niederschläge Wind Luftdruck Luftfeuchtigkeit
00:00 +3°C° 0 mm 1 m/S 723 mmHg 82%
01:00 +3°C° 0 mm 1 m/S 723 mmHg 81%
02:00 +3°C° 0 mm 1 m/S 723 mmHg 81%
03:00 +3°C° 0 mm 1 m/S 722 mmHg 80%
04:00 +3°C° 0 mm 1 m/S 722 mmHg 80%
05:00 +2°C° 0 mm 1 m/S 723 mmHg 80%
06:00 +2°C° 0 mm 1 m/S 723 mmHg 79%
07:00 +4°C° 0 mm 1 m/S 723 mmHg 73%
08:00 +6°C° 0 mm 1 m/S 723 mmHg 67%
09:00 +7°C° 0 mm 0 m/S 723 mmHg 62%
10:00 +10°C° 0 mm 1 m/S 723 mmHg 59%
11:00 +11°C° 0 mm 1 m/S 723 mmHg 56%
12:00 +13°C° 0 mm 1 m/S 723 mmHg 53%
13:00 +13°C° 0 mm 1 m/S 723 mmHg 54%
14:00 +13°C° 0 mm 1 m/S 723 mmHg 55%
15:00 +13°C° 0 mm 1 m/S 722 mmHg 56%
16:00 +10°C° 0 mm 1 m/S 722 mmHg 63%
17:00 +8°C° 0 mm 1 m/S 722 mmHg 71%
18:00 +6°C° 0 mm 1 m/S 723 mmHg 78%
19:00 +6°C° 0 mm 1 m/S 723 mmHg 74%
20:00 +5°C° 0 mm 1 m/S 723 mmHg 71%
21:00 +5°C° 0 mm 1 m/S 723 mmHg 67%
22:00 +4°C° 0 mm 1 m/S 723 mmHg 66%
23:00 +4°C° 0 mm 1 m/S 724 mmHg 64%

Morgen, 2 März, Dienstag

Zeit Temperatur Niederschläge Wind Luftdruck Luftfeuchtigkeit
00:00 +4°C° 0 mm 1 m/S 724 mmHg 62%
01:00 +4°C° 0 mm 1 m/S 724 mmHg 60%
02:00 +4°C° 0 mm 1 m/S 723 mmHg 58%
03:00 +3°C° 0 mm 1 m/S 723 mmHg 56%
04:00 +3°C° 0 mm 1 m/S 724 mmHg 55%
05:00 +3°C° 0 mm 1 m/S 724 mmHg 53%
06:00 +3°C° 0 mm 1 m/S 724 mmHg 52%
07:00 +5°C° 0 mm 1 m/S 724 mmHg 49%
08:00 +7°C° 0 mm 0 m/S 724 mmHg 47%
09:00 +9°C° 0 mm 0 m/S 724 mmHg 44%
10:00 +11°C° 0 mm 0 m/S 724 mmHg 43%
11:00 +12°C° 0 mm 0 m/S 724 mmHg 42%
12:00 +15°C° 0 mm 1 m/S 724 mmHg 41%
13:00 +14°C° 0 mm 0 m/S 724 mmHg 42%
14:00 +13°C° 0 mm 0 m/S 724 mmHg 44%
15:00 +13°C° 0 mm 0 m/S 724 mmHg 46%
16:00 +11°C° 0 mm 0 m/S 724 mmHg 51%
17:00 +9°C° 0 mm 0 m/S 724 mmHg 56%
18:00 +8°C° 0 mm 1 m/S 724 mmHg 61%
19:00 +7°C° 0 mm 1 m/S 724 mmHg 59%
20:00 +7°C° 0 mm 1 m/S 724 mmHg 57%
21:00 +6°C° 0 mm 1 m/S 724 mmHg 55%
22:00 +6°C° 0 mm 1 m/S 724 mmHg 54%
23:00 +6°C° 0 mm 1 m/S 724 mmHg 54%

übermorgen, 3 März, Mittwoch

Zeit Temperatur Niederschläge Wind Luftdruck Luftfeuchtigkeit
00:00 +6°C° 0 mm 1 m/S 724 mmHg 53%
01:00 +5°C° 0 mm 1 m/S 724 mmHg 53%
02:00 +5°C° 0 mm 1 m/S 724 mmHg 54%
03:00 +5°C° 0 mm 1 m/S 724 mmHg 54%
04:00 +5°C° 0 mm 1 m/S 723 mmHg 54%
05:00 +5°C° 0 mm 1 m/S 723 mmHg 54%
06:00 +5°C° 0 mm 1 m/S 723 mmHg 55%
07:00 +7°C° 0 mm 1 m/S 723 mmHg 52%
08:00 +9°C° 0 mm 1 m/S 723 mmHg 49%
09:00 +10°C° 0 mm 0 m/S 723 mmHg 46%
10:00 +13°C° 0 mm 1 m/S 723 mmHg 44%
11:00 +14°C° 0 mm 1 m/S 723 mmHg 42%
12:00 +16°C° 0 mm 1 m/S 723 mmHg 40%
13:00 +16°C° 0 mm 1 m/S 722 mmHg 42%
14:00 +15°C° 0 mm 1 m/S 722 mmHg 44%
15:00 +15°C° 0 mm 1 m/S 721 mmHg 45%
16:00 +13°C° 0 mm 1 m/S 721 mmHg 52%
17:00 +11°C° 0 mm 1 m/S 721 mmHg 59%
18:00 +9°C° 0 mm 1 m/S 721 mmHg 66%
19:00 +9°C° 0 mm 1 m/S 721 mmHg 66%
20:00 +8°C° 0 mm 1 m/S 721 mmHg 66%
21:00 +8°C° 0 mm 1 m/S 720 mmHg 67%
22:00 +7°C° 0 mm 1 m/S 720 mmHg 67%
23:00 +7°C° 0 mm 1 m/S 720 mmHg 66%

4 März, Donnerstag

Zeit Temperatur Niederschläge Wind Luftdruck Luftfeuchtigkeit
00:00 +7°C° 0 mm 1 m/S 719 mmHg 66%
01:00 +7°C° 0 mm 1 m/S 719 mmHg 66%
02:00 +6°C° 0 mm 1 m/S 719 mmHg 66%
03:00 +6°C° 0 mm 1 m/S 718 mmHg 66%
04:00 +6°C° 0 mm 1 m/S 718 mmHg 66%
05:00 +6°C° 0 mm 1 m/S 718 mmHg 67%
06:00 +6°C° 0 mm 1 m/S 717 mmHg 67%
07:00 +7°C° 0 mm 1 m/S 717 mmHg 64%
08:00 +9°C° 0 mm 1 m/S 717 mmHg 61%
09:00 +11°C° 0 mm 1 m/S 717 mmHg 58%
10:00 +12°C° 0 mm 1 m/S 717 mmHg 56%
11:00 +13°C° 0 mm 2 m/S 716 mmHg 54%
12:00 +14°C° 0 mm 2 m/S 716 mmHg 52%
13:00 +14°C° 0.1 mm 2 m/S 716 mmHg 55%
14:00 +13°C° 0.1 mm 2 m/S 715 mmHg 59%
15:00 +13°C° 0.1 mm 2 m/S 714 mmHg 62%
16:00 +12°C° 0.5 mm 2 m/S 714 mmHg 71%
17:00 +10°C° 0.5 mm 1 m/S 714 mmHg 80%
18:00 +7°C° 0.5 mm 0 m/S 714 mmHg 89%
19:00 +7°C° 0.4 mm 0 m/S 714 mmHg 90%
20:00 +7°C° 0.4 mm 0 m/S 714 mmHg 92%
21:00 +7°C° 0.4 mm 0 m/S 714 mmHg 93%
22:00 +6°C° 0.3 mm 0 m/S 714 mmHg 93%
23:00 +6°C° 0.3 mm 0 m/S 714 mmHg 93%

5 März, Freitag

Zeit Temperatur Niederschläge Wind Luftdruck Luftfeuchtigkeit
00:00 +6°C° 0.3 mm 0 m/S 714 mmHg 94%
01:00 +6°C° 0.2 mm 0 m/S 714 mmHg 94%
02:00 +6°C° 0.2 mm 0 m/S 714 mmHg 94%
03:00 +6°C° 0.2 mm 0 m/S 713 mmHg 94%
04:00 +5°C° 0.2 mm 0 m/S 713 mmHg 94%
05:00 +5°C° 0.2 mm 0 m/S 713 mmHg 94%
06:00 +5°C° 0.2 mm 0 m/S 713 mmHg 95%
07:00 +6°C° 0.3 mm 0 m/S 714 mmHg 91%
08:00 +7°C° 0.3 mm 0 m/S 714 mmHg 88%
09:00 +7°C° 0.3 mm 0 m/S 714 mmHg 84%
10:00 +8°C° 0.3 mm 0 m/S 714 mmHg 83%
11:00 +9°C° 0.3 mm 1 m/S 714 mmHg 83%
12:00 +9°C° 0.3 mm 1 m/S 714 mmHg 82%
13:00 +8°C° 0.3 mm 1 m/S 714 mmHg 84%
14:00 +7°C° 0.3 mm 2 m/S 714 mmHg 86%
15:00 +6°C° 0.3 mm 2 m/S 714 mmHg 88%
16:00 +5°C° 0.5 mm 2 m/S 714 mmHg 90%
17:00 +4°C° 0.5 mm 2 m/S 714 mmHg 92%
18:00 +3°C° 0.5 mm 2 m/S 715 mmHg 94%
19:00 +2°C° 0.4 mm 2 m/S 715 mmHg 94%
20:00 +1°C° 0.4 mm 3 m/S 716 mmHg 95%
21:00 0°C° 0.4 mm 3 m/S 717 mmHg 95%
22:00 0°C° 0.1 mm 3 m/S 717 mmHg 95%
23:00 -1°C° 0.1 mm 3 m/S 717 mmHg 94%

6 März, Samstag

Zeit Temperatur Niederschläge Wind Luftdruck Luftfeuchtigkeit
00:00 -1°C° 0.1 mm 3 m/S 717 mmHg 93%
01:00 -1°C° 0 mm 3 m/S 718 mmHg 92%
02:00 -2°C° 0 mm 3 m/S 718 mmHg 91%
03:00 -3°C° 0 mm 4 m/S 718 mmHg 90%
04:00 -4°C° 0 mm 3 m/S 718 mmHg 91%
05:00 -4°C° 0 mm 3 m/S 719 mmHg 91%
06:00 -5°C° 0 mm 3 m/S 719 mmHg 91%
07:00 -4°C° 0 mm 4 m/S 719 mmHg 88%
08:00 -3°C° 0 mm 4 m/S 719 mmHg 84%
09:00 -2°C° 0 mm 4 m/S 719 mmHg 80%
10:00 -1°C° 0 mm 4 m/S 719 mmHg 76%
11:00 0°C° 0 mm 5 m/S 719 mmHg 72%
12:00 +1°C° 0 mm 5 m/S 719 mmHg 68%
13:00 +1°C° 0 mm 5 m/S 719 mmHg 65%
14:00 +1°C° 0 mm 5 m/S 719 mmHg 63%
15:00 +2°C° 0 mm 5 m/S 719 mmHg 61%
16:00 0°C° 0 mm 4 m/S 720 mmHg 65%
17:00 -1°C° 0 mm 4 m/S 720 mmHg 70%
18:00 -2°C° 0 mm 4 m/S 720 mmHg 74%
19:00 -2°C° 0 mm 3 m/S 720 mmHg 74%
20:00 -2°C° 0 mm 3 m/S 720 mmHg 75%
21:00 -4°C° 0 mm 3 m/S 721 mmHg 75%
22:00 -4°C° 0 mm 3 m/S 721 mmHg 75%
23:00 -3°C° 0 mm 2 m/S 721 mmHg 74%
Mehr zeigen

Wir brauchen deine Erlaubnis

Meteoprog und unser Service Anbieter werden persönliche Daten aufbewahren, so wie Cookies, Geräte Bezeichnung oder ähnliche Technologien von deinem Gerät und Prozess, so wie Persönliche Daten Inhalte und Werbungen, genauso wie social Media und den Verkehr zu analysieren.

  • Aufbewahrung und/oder Zugang zu deiner Geräte Informationen.

    Cookies, Geräte Bezeichnung oder andere Informationen, können aufbewahrt oder Zugang zu deinem Gerät erhalten, für den Grund, der oben angegeben wird.

  • Personalisierte Werbung und Inhalte, Messungen, Einblick in das Publikum und Produkt Entwicklung.

    Werbungen und Inhalte können personalisiert werden, basierend auf ein Profil. Mehr Daten können besser personalisierte Werbungen und Inhalte hinzufügen. Werbung und Inhalte können gezeigt und gemessen werden. Einblicke über das Publikum, welche die Werbung gesehen haben und den Inhalt, können abgeleitet werden. So wie Daten können genutzt werden, um es zu verbessern oder die Benutzer Erfahrung zu verbessern das System und die Software.

Wenn du “Ich stimme zu” klickst, erlaubst du uns, die Cookies zu benutzen die Geräte Bezeichnung, den Web oder ähnliche Technologien zu benutzen. Deine Settings, können in deinem Gerät bei deinem Browser geändert werden.

Für den bestimmten Zweck, berechtigten Interessen beruhen darauf, mehr als auf den Inhalt. Du kannst mehr darüber in unseren Privaten und Cookie Politik lesen.